カタログに戻る

CZ-4 DEB

運用中SSO
NORAD 35330·DEBRIS·🇨🇳 China

打ち上げ Oct 14, 1999 から Taiyuan Satellite Launch Center

Loading…

次のパス (今後24時間)

TLE

最新Source: Space-Track

元期: Sep 13, 2026, 09:02 UTC

1 35330U 99057SJ  26256.37695518  .00000414  00000-0  12971-3 0  9991
2 35330  98.6366 308.6803 0081638 112.6613 248.3236 14.43959551233369

AllMySatでCZ-4 DEBをリアルタイム追跡

Download on the App Store